Overview Statistics Trail Chart Weather Telemetry Raw packets
 

This is the latest recevied weather packets stored in our database for station/object N5TDX. If no packets are shown the sender has not sent any weather packets the latest 10 day(s).

<< 55 56 57 58 59 60 61 >>
Time Temp. Humidity Pressure Rain* Wind** Luminosity Snow
1788291244 38.33° C 34% 1012.2 hPa 0 mm - - -
1788290943 38.33° C 33% 1011.9 hPa 0 mm - - -
1788290639 37.78° C 34% 1012.2 hPa 0 mm - - -
1788290335 37.22° C 36% 1012.3 hPa 0 mm - - -
1788290031 36.67° C 37% 1012.4 hPa 0 mm - - -
1788289727 37.22° C 36% 1012.4 hPa 0 mm - - -
1788289427 38.33° C 35% 1012.4 hPa 0 mm - - -
1788289125 38.89° C 34% 1012.6 hPa 0 mm - - -
1788288824 38.89° C 34% 1012.5 hPa 0 mm - - -
1788288519 39.44° C 33% 1012.6 hPa 0 mm - - -
1788288215 38.33° C 34% 1012.7 hPa 0 mm - - -
1788287910 38.33° C 34% 1012.8 hPa 0 mm - - -
1788287610 38.33° C 35% 1012.8 hPa 0 mm - - -
1788287306 38.33° C 36% 1013.1 hPa 0 mm - - -
1788287005 37.78° C 36% 1013.1 hPa 0 mm - - -
1788286701 37.78° C 35% 1013.1 hPa 0 mm - - -
1788286396 37.78° C 36% 1013 hPa 0 mm - - -
1788286095 37.78° C 36% 1013.4 hPa 0 mm - - -
1788285794 37.78° C 35% 1013.3 hPa 0 mm - - -
1788285493 37.78° C 36% 1013.3 hPa 0 mm - - -
1788285188 37.22° C 38% 1013.4 hPa 0 mm - - -
1788284883 37.78° C 36% 1013.6 hPa 0 mm - - -
1788284579 36.67° C 38% 1013.5 hPa 0 mm - - -
1788284274 36.11° C 39% 1013.6 hPa 0 mm - - -
1788283974 36.67° C 38% 1013.8 hPa 0 mm - - -

* Rain latest hour (hover to see other rain measurements)
** Current wind speed in m/s (hover to see current wind gust speed)